Starlink 35953

operational
NORAD ID: 66637 Int'l Des: 2025-271 Owner: SPXS Country: US Constellation: starlink
LEOCIRCULAR

关于 Starlink 35953

正在加载描述...

实时位置

正在加载3D地球...

即将过境

高度历史

Altitude vs Time

uPlot chart will show altitude changes over time

两行轨道根数

1 66637U 25271W 26062.59714655 .00024663 00000-0 84217-3 0 9999
2 66637 53.1590 168.2499 0001083 87.8034 272.3091 15.30196122 16634
Epoch: Mar 3, 2026 • Age: 37 hours

当前状态

高度 480.4 km
速度 7.63 km/s
星下点 50.69°N, 121.87°W
发射日期 Nov 23, 2025
运行时间 0.2 years
类型 internet

技术详情

分类 Payload
质量 575.00 kg
干质量 530.00 kg
总质量 575.00 kg
长度 0.30 m
直径 4.10 m
跨度 29.00 m
形状 Box + pan
制造商 SPXS
平台类型 Starlink V2MO
阶段状态 In Orbit
所有者/国家 SPXS/US

大型星座

Loading constellations...